Find Starlink 32523

NORAD ID: 62165 Int'l Des: 2024-225 Owner: SPXS Country: US Constellation: starlink operational
LEOCIRCULAR

現在のビュー

3D地球を読み込み中...

About Starlink 32523

Starlink 32523 (NORAD 62165) is a starlink constellation satellite (v2 mini) launched Nov 30, 2024 by SPXS of US. It operates in LEO, CIRCULAR orbit with a mass of 730.00 kg.

次回通過

Passes for default location (London). Set your location on the main map for personalized predictions.

高度履歴

Loading altitude history...

軌道要素

1 62165U 24225C 26265.63565119 .00033094 00000-0 27571-2 0 9995
2 62165 70.0023 27.9621 0003416 284.8170 75.2611 14.98485658 99373
Epoch: Sep 22, 2026 • Age: 17 hours

現在のステータス

高度 591.4 km
遠地点 / 近地点 N/A
速度 7.56 km/s
衛星直下点 -57.98°S, 113.9°E
打ち上げ日 Nov 30, 2024
運用期間 1.8 years
タイプ internet

技術仕様

分類 Payload
質量 730.00 kg
乾燥質量 700.00 kg
長さ 0.30 m
スパン 29.00 m
形状 ? Box + pan
製造者 SPXS
バスタイプ Starlink V2M
フェーズステータス In Orbit
所有者/国 SPXS/US

Most Searched